GFSSE_prec_precacc24_336.txt.gz
Total_Precipitation_Accumulation
0.12 0.40 0.92 0.62 0.37 0.52 0.47 0.21 0.20 0.20 0.21 0.17 0.30 0.26 0.13 0.06 0.04 0.03 0.02 0.01 0.03 0.02 0.00 0.00 0.00 0.00 0.00 0.00 0.00 0.00 0.01 0.01 0.00 0.00 0.01 0.00 0.01 0.13 0.21 0.14 0.25 0.18 0.15
0.01 0.21 0.86 0.55 0.31 0.34 0.45 0.20 0.20 0.22 0.21 0.13 0.21 0.20 0.09 0.03 0.01 0.01 0.01 0.01 0.00 0.00 0.01 0.01 0.01 0.00 0.00 0.00 0.00 0.02 0.02 0.02 0.00 0.01 0.00 0.01 0.00 0.08 0.33 0.31 0.85 0.42 0.19
0.01 0.13 1.14 0.74 0.38 0.27 0.47 0.27 0.22 0.25 0.29 0.20 0.13 0.12 0.04 0.01 0.00 0.00 0.00 0.00 0.01 0.04 0.04 0.04 0.03 0.03 0.05 0.03 0.00 0.01 0.02 0.01 0.00 0.03 0.10 0.06 0.01 0.03 0.31 0.59 0.60 0.49 0.16
0.02 0.02 0.97 1.09 0.43 0.32 0.59 0.52 0.33 0.25 0.19 0.15 0.11 0.08 0.02 0.00 0.01 0.01 0.00 0.01 0.08 0.16 0.19 0.13 0.05 0.04 0.01 0.00 0.01 0.03 0.02 0.00 0.01 0.09 0.10 0.03 0.00 0.00 0.18 0.52 0.66 0.63 0.18
0.04 0.08 0.76 1.01 0.45 0.51 0.94 0.58 0.35 0.25 0.16 0.17 0.12 0.05 0.02 0.02 0.02 0.05 0.05 0.04 0.10 0.15 0.05 0.01 0.00 0.00 0.01 0.00 0.00 0.00 0.00 0.03 0.08 0.12 0.04 0.03 0.01 0.02 0.17 0.32 0.55 0.60 0.27
0.03 0.16 0.60 1.13 0.72 0.54 1.05 0.81 0.53 0.31 0.31 0.13 0.09 0.06 0.05 0.06 0.04 0.12 0.10 0.09 0.03 0.00 0.00 0.00 0.02 0.01 0.01 0.00 0.00 0.00 0.00 0.00 0.02 0.04 0.02 0.02 0.13 0.05 0.11 0.15 0.26 0.41 0.40
0.03 0.12 0.58 0.94 1.38 1.62 1.92 1.25 0.60 0.50 0.40 0.12 0.11 0.06 0.07 0.08 0.10 0.18 0.10 0.02 0.01 0.01 0.01 0.00 0.00 0.00 0.00 0.00 0.00 0.00 0.00 0.02 0.04 0.01 0.00 0.00 0.01 0.03 0.07 0.03 0.10 0.26 0.60
0.07 0.06 0.66 1.30 1.36 1.98 2.05 1.35 0.71 0.50 0.27 0.15 0.08 0.03 0.03 0.10 0.21 0.27 0.10 0.05 0.04 0.03 0.00 0.00 0.00 0.00 0.00 0.03 0.04 0.02 0.02 0.04 0.01 0.00 0.00 0.00 0.00 0.00 0.00 0.00 0.03 0.13 0.19
0.12 0.02 0.26 0.97 1.45 2.11 1.61 2.08 0.92 0.59 0.26 0.08 0.05 0.04 0.14 0.22 0.21 0.11 0.08 0.13 0.11 0.02 0.00 0.00 0.00 0.01 0.05 0.06 0.03 0.02 0.04 0.09 0.03 0.01 0.00 0.00 0.00 0.00 0.01 0.02 0.01 0.08 0.14
0.04 0.03 0.09 0.60 1.26 1.46 1.28 2.45 1.28 0.34 0.09 0.06 0.11 0.28 0.28 0.41 0.11 0.18 0.12 0.07 0.03 0.00 0.00 0.00 0.02 0.05 0.06 0.04 0.02 0.04 0.05 0.13 0.07 0.02 0.01 0.01 0.00 0.00 0.00 0.00 0.00 0.03 0.14
0.04 0.05 0.10 0.33 0.76 0.66 0.79 1.27 1.24 0.73 0.20 0.26 0.36 0.52 0.43 0.23 0.07 0.06 0.10 0.06 0.00 0.00 0.01 0.02 0.03 0.04 0.04 0.00 0.00 0.00 0.03 0.21 0.18 0.05 0.04 0.01 0.00 0.00 0.00 0.00 0.00 0.01 0.01
0.03 0.09 0.18 0.26 0.20 0.52 0.43 0.64 0.60 0.52 0.30 0.30 0.53 0.41 0.24 0.17 0.09 0.02 0.00 0.00 0.00 0.02 0.00 0.00 0.00 0.00 0.00 0.02 0.07 0.01 0.04 0.04 0.03 0.26 0.19 0.00 0.00 0.00 0.00 0.00 0.03 0.03 0.01
0.02 0.06 0.14 0.21 0.26 0.35 0.36 0.23 0.31 0.45 0.29 0.22 0.65 0.29 0.21 0.19 0.02 0.00 0.00 0.00 0.00 0.00 0.00 0.01 0.00 0.00 0.00 0.00 0.02 0.02 0.01 0.01 0.01 0.14 0.10 0.00 0.00 0.00 0.00 0.00 0.13 0.08 0.08
0.02 0.07 0.14 0.25 0.34 0.33 0.44 0.15 0.16 0.27 0.31 0.26 0.36 0.13 0.15 0.11 0.01 0.00 0.00 0.00 0.00 0.00 0.00 0.00 0.00 0.00 0.00 0.00 0.00 0.00 0.00 0.00 0.00 0.01 0.01 0.00 0.00 0.00 0.00 0.00 0.20 0.20 0.12
0.02 0.06 0.17 0.25 0.30 0.30 0.72 0.29 0.22 0.29 0.14 0.16 0.22 0.06 0.06 0.02 0.01 0.00 0.00 0.00 0.00 0.00 0.00 0.00 0.00 0.00 0.00 0.00 0.00 0.00 0.00 0.00 0.00 0.01 0.10 0.03 0.00 0.00 0.00 0.02 0.23 0.44 0.19
0.02 0.05 0.21 0.31 0.18 0.24 0.42 0.49 0.15 0.15 0.08 0.13 0.08 0.00 0.02 0.02 0.05 0.02 0.00 0.00 0.00 0.00 0.00 0.00 0.00 0.00 0.00 0.01 0.01 0.00 0.01 0.01 0.01 0.12 0.16 0.19 0.02 0.00 0.07 0.14 0.37 0.65 0.30
0.01 0.01 0.07 0.19 0.16 0.19 0.23 0.19 0.04 0.02 0.04 0.06 0.05 0.06 0.00 0.01 0.03 0.01 0.00 0.00 0.00 0.01 0.00 0.00 0.00 0.00 0.02 0.10 0.03 0.02 0.02 0.03 0.08 0.11 0.18 0.30 0.12 0.08 0.26 0.47 0.76 0.96 0.65
0.00 0.01 0.01 0.08 0.13 0.16 0.24 0.22 0.08 0.03 0.01 0.02 0.06 0.04 0.01 0.00 0.00 0.00 0.00 0.01 0.01 0.01 0.01 0.05 0.04 0.03 0.03 0.02 0.05 0.05 0.02 0.04 0.07 0.09 0.06 0.22 0.24 0.11 0.34 0.71 0.86 1.01 0.37
0.00 0.01 0.01 0.05 0.11 0.20 0.34 0.53 0.12 0.02 0.01 0.00 0.02 0.04 0.03 0.01 0.00 0.00 0.01 0.03 0.04 0.01 0.01 0.13 0.07 0.07 0.05 0.00 0.01 0.01 0.02 0.01 0.05 0.04 0.08 0.29 0.30 0.13 0.10 0.69 1.73 1.02 0.32
0.00 0.00 0.01 0.03 0.06 0.11 0.14 0.25 0.06 0.00 0.00 0.00 0.00 0.02 0.02 0.03 0.03 0.01 0.00 0.00 0.01 0.02 0.07 0.11 0.20 0.18 0.04 0.00 0.01 0.00 0.00 0.00 0.00 0.02 0.11 0.20 0.36 0.11 0.17 0.50 0.55 0.79 0.27
0.00 0.00 0.01 0.17 0.10 0.05 0.13 0.11 0.04 0.02 0.01 0.00 0.00 0.01 0.02 0.01 0.02 0.02 0.00 0.02 0.04 0.14 0.14 0.08 0.20 0.16 0.17 0.03 0.03 0.00 0.00 0.00 0.05 0.04 0.06 0.02 0.02 0.05 0.17 0.08 0.04 0.09 0.25
0.01 0.00 0.04 0.04 0.10 0.11 0.16 0.18 0.23 0.17 0.04 0.00 0.00 0.01 0.02 0.05 0.05 0.06 0.15 0.06 0.11 0.12 0.15 0.21 0.13 0.12 0.11 0.05 0.04 0.01 0.07 0.08 0.01 0.02 0.00 0.00 0.00 0.01 0.01 0.01 0.02 0.11 0.29
0.02 0.00 0.01 0.02 0.01 0.01 0.02 0.03 0.08 0.11 0.14 0.14 0.04 0.01 0.02 0.05 0.05 0.04 0.07 0.07 0.09 0.03 0.09 0.25 0.26 0.29 0.52 0.37 0.18 0.17 0.13 0.22 0.06 0.01 0.01 0.00 0.00 0.00 0.00 0.02 0.00 0.08 0.24
0.03 0.02 0.03 0.04 0.01 0.01 0.05 0.03 0.05 0.08 0.10 0.02 0.01 0.01 0.06 0.10 0.20 0.14 0.10 0.21 0.16 0.20 0.31 0.33 0.22 0.24 0.49 0.64 0.35 0.31 0.40 0.20 0.04 0.04 0.03 0.00 0.00 0.00 0.00 0.00 0.00 0.02 0.12
0.02 0.03 0.02 0.07 0.05 0.04 0.05 0.17 0.14 0.06 0.02 0.02 0.01 0.09 0.22 0.26 0.27 0.28 0.23 0.39 0.44 0.34 0.34 0.29 0.29 0.45 0.42 0.57 0.43 0.35 0.30 0.12 0.01 0.01 0.00 0.00 0.00 0.00 0.00 0.00 0.02 0.06 0.26
0.03 0.03 0.02 0.04 0.09 0.07 0.05 0.13 0.08 0.12 0.15 0.21 0.25 0.19 0.19 0.19 0.31 0.51 0.39 0.43 0.33 0.34 0.36 0.39 0.34 0.61 0.51 0.50 0.59 0.43 0.26 0.19 0.15 0.10 0.01 0.02 0.00 0.00 0.00 0.01 0.02 0.14 0.78

GFSSE_prec_precacc24_339.txt.gz
Total_Precipitation_Accumulation
0.25 0.40 1.10 0.82 0.39 0.47 0.29 0.13 0.16 0.20 0.22 0.19 0.26 0.20 0.12 0.07 0.04 0.02 0.02 0.01 0.03 0.02 0.00 0.00 0.00 0.00 0.00 0.00 0.00 0.00 0.00 0.00 0.00 0.00 0.00 0.00 0.01 0.14 0.19 0.12 0.16 0.09 0.07
0.03 0.21 1.01 0.66 0.31 0.31 0.21 0.17 0.16 0.20 0.20 0.13 0.18 0.13 0.06 0.02 0.01 0.01 0.01 0.01 0.00 0.00 0.00 0.00 0.01 0.00 0.00 0.00 0.00 0.01 0.00 0.00 0.00 0.01 0.00 0.01 0.00 0.06 0.31 0.25 0.50 0.30 0.13
0.03 0.13 1.30 0.82 0.39 0.24 0.22 0.22 0.21 0.22 0.24 0.18 0.11 0.07 0.03 0.01 0.00 0.00 0.00 0.00 0.01 0.01 0.02 0.02 0.03 0.01 0.02 0.00 0.00 0.00 0.00 0.00 0.00 0.03 0.06 0.11 0.01 0.03 0.28 0.47 0.45 0.38 0.15
0.04 0.02 1.08 1.27 0.44 0.31 0.39 0.40 0.32 0.20 0.16 0.11 0.08 0.06 0.02 0.00 0.01 0.01 0.00 0.01 0.04 0.08 0.10 0.06 0.01 0.02 0.01 0.00 0.01 0.02 0.01 0.00 0.01 0.09 0.08 0.04 0.00 0.00 0.15 0.42 0.63 0.68 0.18
0.03 0.03 0.72 1.19 0.47 0.52 0.84 0.47 0.32 0.23 0.08 0.05 0.07 0.04 0.01 0.01 0.01 0.03 0.02 0.03 0.06 0.08 0.03 0.01 0.00 0.00 0.00 0.00 0.00 0.00 0.00 0.03 0.08 0.11 0.04 0.03 0.01 0.02 0.16 0.28 0.50 0.64 0.35
0.04 0.13 0.58 1.32 0.85 0.54 0.96 0.76 0.48 0.23 0.12 0.09 0.09 0.06 0.05 0.06 0.03 0.07 0.07 0.07 0.02 0.00 0.00 0.00 0.01 0.01 0.00 0.00 0.00 0.00 0.00 0.00 0.02 0.04 0.03 0.02 0.05 0.03 0.11 0.14 0.19 0.34 0.48
0.05 0.12 0.59 1.06 1.63 1.72 1.91 1.11 0.49 0.37 0.25 0.13 0.10 0.06 0.05 0.07 0.09 0.10 0.05 0.02 0.00 0.00 0.00 0.00 0.00 0.00 0.00 0.00 0.00 0.00 0.00 0.02 0.04 0.01 0.00 0.00 0.00 0.02 0.05 0.03 0.09 0.21 0.58
0.08 0.06 0.66 1.47 1.66 2.32 2.36 1.17 0.54 0.37 0.26 0.16 0.08 0.03 0.01 0.09 0.18 0.17 0.06 0.04 0.02 0.00 0.00 0.00 0.00 0.00 0.00 0.03 0.04 0.02 0.02 0.04 0.01 0.00 0.00 0.00 0.00 0.00 0.00 0.00 0.01 0.12 0.18
0.14 0.02 0.21 0.99 2.32 4.11 2.06 1.57 0.65 0.51 0.25 0.09 0.04 0.03 0.15 0.22 0.11 0.06 0.03 0.06 0.03 0.00 0.00 0.00 0.00 0.01 0.05 0.06 0.03 0.02 0.05 0.10 0.08 0.01 0.02 0.01 0.00 0.00 0.00 0.00 0.00 0.03 0.13
0.05 0.05 0.08 0.51 1.65 2.58 1.60 2.11 0.97 0.38 0.15 0.06 0.10 0.28 0.32 0.42 0.08 0.14 0.08 0.00 0.01 0.00 0.00 0.00 0.02 0.05 0.06 0.04 0.02 0.04 0.05 0.11 0.06 0.03 0.02 0.02 0.00 0.00 0.00 0.00 0.00 0.02 0.11
0.07 0.12 0.14 0.31 0.76 0.76 0.78 0.82 0.91 0.62 0.20 0.26 0.33 0.45 0.38 0.16 0.02 0.02 0.04 0.01 0.00 0.00 0.01 0.02 0.03 0.05 0.04 0.00 0.00 0.00 0.03 0.20 0.16 0.04 0.04 0.02 0.00 0.00 0.00 0.00 0.00 0.02 0.03
0.06 0.16 0.24 0.25 0.27 0.53 0.48 0.61 0.59 0.45 0.29 0.31 0.51 0.36 0.13 0.02 0.02 0.01 0.00 0.00 0.00 0.02 0.00 0.00 0.00 0.00 0.00 0.02 0.07 0.01 0.03 0.04 0.03 0.25 0.16 0.00 0.00 0.00 0.00 0.00 0.04 0.11 0.13
0.03 0.13 0.22 0.19 0.25 0.35 0.36 0.24 0.30 0.38 0.30 0.27 0.71 0.27 0.04 0.02 0.02 0.00 0.00 0.00 0.00 0.00 0.00 0.01 0.00 0.00 0.00 0.00 0.02 0.01 0.00 0.01 0.01 0.13 0.08 0.00 0.00 0.00 0.00 0.00 0.22 0.29 0.27
0.02 0.11 0.17 0.27 0.33 0.33 0.41 0.12 0.09 0.17 0.33 0.35 0.47 0.14 0.02 0.05 0.01 0.00 0.00 0.00 0.00 0.00 0.00 0.00 0.00 0.00 0.00 0.00 0.00 0.00 0.01 0.01 0.01 0.02 0.01 0.00 0.00 0.00 0.00 0.00 0.35 0.48 0.25
0.02 0.12 0.27 0.31 0.31 0.28 0.74 0.29 0.14 0.06 0.12 0.20 0.33 0.06 0.02 0.02 0.01 0.00 0.00 0.00 0.00 0.00 0.00 0.00 0.00 0.00 0.00 0.00 0.00 0.00 0.00 0.00 0.00 0.01 0.10 0.03 0.00 0.00 0.00 0.02 0.26 0.66 0.21
0.02 0.09 0.31 0.38 0.18 0.22 0.42 0.54 0.09 0.08 0.07 0.06 0.10 0.01 0.01 0.00 0.05 0.02 0.00 0.00 0.00 0.00 0.00 0.00 0.00 0.00 0.00 0.02 0.01 0.01 0.01 0.01 0.01 0.12 0.16 0.19 0.02 0.00 0.07 0.14 0.39 0.72 0.30
0.01 0.02 0.17 0.31 0.18 0.19 0.24 0.23 0.06 0.02 0.04 0.05 0.05 0.06 0.00 0.01 0.03 0.01 0.00 0.00 0.00 0.01 0.00 0.00 0.00 0.00 0.02 0.10 0.03 0.02 0.02 0.03 0.08 0.11 0.18 0.30 0.12 0.08 0.26 0.47 0.76 0.96 0.65
0.00 0.01 0.05 0.18 0.15 0.16 0.25 0.24 0.08 0.03 0.01 0.02 0.06 0.04 0.01 0.00 0.00 0.00 0.00 0.01 0.01 0.01 0.01 0.05 0.04 0.03 0.03 0.02 0.05 0.05 0.02 0.04 0.07 0.09 0.06 0.22 0.24 0.10 0.33 0.71 0.86 1.01 0.37
0.00 0.01 0.02 0.15 0.13 0.22 0.34 0.54 0.13 0.03 0.01 0.00 0.02 0.04 0.03 0.01 0.00 0.00 0.01 0.03 0.04 0.01 0.01 0.13 0.06 0.07 0.05 0.00 0.00 0.01 0.01 0.01 0.04 0.04 0.08 0.29 0.29 0.12 0.10 0.69 1.72 1.02 0.32
0.00 0.01 0.01 0.15 0.10 0.12 0.15 0.26 0.11 0.06 0.00 0.00 0.00 0.02 0.02 0.03 0.03 0.01 0.00 0.00 0.01 0.02 0.05 0.06 0.13 0.07 0.02 0.00 0.01 0.00 0.00 0.00 0.00 0.02 0.11 0.20 0.36 0.10 0.17 0.50 0.53 0.79 0.27
0.00 0.01 0.02 0.29 0.13 0.06 0.09 0.06 0.08 0.04 0.01 0.00 0.00 0.01 0.02 0.01 0.02 0.02 0.00 0.01 0.02 0.04 0.09 0.04 0.05 0.07 0.17 0.03 0.03 0.00 0.00 0.00 0.04 0.06 0.06 0.01 0.01 0.04 0.17 0.07 0.04 0.08 0.21
0.01 0.00 0.04 0.12 0.19 0.15 0.14 0.14 0.22 0.14 0.03 0.00 0.00 0.01 0.01 0.01 0.03 0.04 0.06 0.04 0.05 0.05 0.11 0.22 0.13 0.17 0.14 0.07 0.05 0.01 0.07 0.11 0.07 0.09 0.00 0.00 0.00 0.01 0.01 0.01 0.02 0.06 0.25
0.02 0.00 0.01 0.03 0.04 0.07 0.11 0.13 0.13 0.10 0.04 0.02 0.01 0.01 0.02 0.04 0.04 0.04 0.04 0.05 0.06 0.03 0.09 0.28 0.37 0.42 0.64 0.48 0.23 0.18 0.14 0.33 0.08 0.01 0.01 0.00 0.00 0.00 0.00 0.02 0.02 0.05 0.18
0.03 0.02 0.03 0.04 0.02 0.05 0.13 0.14 0.10 0.09 0.08 0.01 0.01 0.01 0.06 0.10 0.20 0.14 0.09 0.13 0.11 0.18 0.35 0.38 0.28 0.29 0.50 0.69 0.38 0.37 0.46 0.23 0.09 0.04 0.03 0.00 0.00 0.00 0.00 0.00 0.01 0.04 0.24
0.02 0.03 0.02 0.07 0.06 0.05 0.11 0.29 0.20 0.12 0.09 0.04 0.01 0.10 0.22 0.26 0.27 0.28 0.23 0.28 0.39 0.40 0.43 0.36 0.33 0.43 0.33 0.49 0.53 0.49 0.43 0.20 0.08 0.04 0.01 0.00 0.01 0.00 0.00 0.00 0.02 0.11 0.32
0.03 0.03 0.02 0.04 0.10 0.09 0.05 0.16 0.16 0.20 0.21 0.18 0.20 0.16 0.19 0.18 0.31 0.48 0.39 0.40 0.33 0.40 0.38 0.36 0.30 0.51 0.42 0.38 0.58 0.44 0.33 0.24 0.17 0.10 0.01 0.02 0.01 0.00 0.00 0.00 0.02 0.14 0.42

GFSSE_prec_precacc24_342.txt.gz
Total_Precipitation_Accumulation
0.26 0.41 1.32 0.91 0.40 0.36 0.19 0.10 0.16 0.18 0.22 0.20 0.25 0.19 0.10 0.05 0.03 0.02 0.01 0.00 0.02 0.01 0.00 0.00 0.00 0.00 0.00 0.00 0.00 0.00 0.00 0.00 0.00 0.00 0.00 0.00 0.01 0.14 0.18 0.03 0.04 0.03 0.03
0.04 0.21 1.19 0.77 0.33 0.23 0.19 0.19 0.15 0.17 0.17 0.13 0.17 0.12 0.05 0.01 0.01 0.01 0.01 0.00 0.00 0.00 0.00 0.00 0.01 0.00 0.00 0.00 0.00 0.00 0.00 0.00 0.00 0.01 0.00 0.01 0.00 0.05 0.27 0.17 0.05 0.10 0.09
0.04 0.13 1.42 0.91 0.45 0.19 0.18 0.24 0.21 0.21 0.17 0.15 0.10 0.06 0.02 0.01 0.00 0.00 0.00 0.00 0.00 0.00 0.00 0.01 0.02 0.01 0.00 0.00 0.00 0.00 0.00 0.00 0.00 0.03 0.07 0.22 0.02 0.02 0.24 0.35 0.36 0.21 0.12
0.04 0.02 1.20 1.33 0.48 0.25 0.30 0.40 0.34 0.20 0.13 0.09 0.06 0.04 0.01 0.00 0.00 0.00 0.00 0.00 0.01 0.01 0.00 0.00 0.00 0.00 0.00 0.00 0.00 0.00 0.00 0.00 0.01 0.09 0.16 0.05 0.01 0.00 0.13 0.35 0.54 0.53 0.16
0.03 0.02 0.79 1.30 0.51 0.44 0.60 0.46 0.32 0.23 0.08 0.04 0.03 0.01 0.01 0.01 0.01 0.01 0.01 0.00 0.01 0.01 0.00 0.00 0.00 0.00 0.00 0.00 0.00 0.00 0.00 0.03 0.08 0.11 0.03 0.00 0.00 0.02 0.16 0.24 0.43 0.58 0.29
0.04 0.13 0.64 1.52 0.91 0.51 0.74 0.71 0.45 0.15 0.06 0.05 0.03 0.03 0.04 0.05 0.02 0.01 0.02 0.01 0.01 0.00 0.00 0.00 0.00 0.00 0.00 0.00 0.00 0.00 0.00 0.00 0.02 0.06 0.03 0.00 0.01 0.02 0.11 0.13 0.19 0.33 0.41
0.05 0.11 0.60 1.21 1.77 1.79 1.83 1.00 0.37 0.15 0.08 0.10 0.07 0.05 0.04 0.05 0.05 0.03 0.03 0.01 0.00 0.00 0.00 0.00 0.00 0.00 0.00 0.00 0.00 0.00 0.00 0.02 0.05 0.02 0.02 0.00 0.00 0.02 0.05 0.03 0.08 0.20 0.53
0.08 0.05 0.66 1.52 1.73 2.32 2.35 1.03 0.36 0.16 0.11 0.12 0.08 0.04 0.01 0.07 0.11 0.11 0.05 0.01 0.00 0.00 0.00 0.00 0.00 0.00 0.00 0.03 0.04 0.02 0.02 0.04 0.03 0.02 0.04 0.00 0.00 0.00 0.00 0.00 0.01 0.12 0.18
0.15 0.02 0.18 0.99 2.41 4.27 2.25 1.21 0.49 0.40 0.19 0.12 0.06 0.03 0.15 0.19 0.07 0.05 0.01 0.00 0.00 0.00 0.00 0.00 0.00 0.01 0.05 0.06 0.03 0.02 0.05 0.10 0.17 0.12 0.41 0.03 0.00 0.00 0.00 0.00 0.00 0.03 0.13
0.08 0.06 0.06 0.57 2.44 3.42 1.84 1.48 0.84 0.39 0.16 0.08 0.10 0.28 0.30 0.27 0.05 0.07 0.01 0.00 0.00 0.00 0.00 0.00 0.02 0.05 0.06 0.04 0.02 0.04 0.05 0.06 0.02 0.04 0.08 0.03 0.00 0.00 0.00 0.00 0.00 0.02 0.11
0.17 0.15 0.13 0.31 0.81 0.94 0.89 0.76 0.86 0.64 0.19 0.26 0.33 0.45 0.38 0.14 0.01 0.01 0.00 0.00 0.00 0.00 0.01 0.02 0.03 0.05 0.04 0.00 0.00 0.00 0.03 0.17 0.09 0.03 0.03 0.02 0.00 0.00 0.00 0.00 0.00 0.08 0.12
0.13 0.21 0.26 0.25 0.26 0.46 0.38 0.46 0.52 0.48 0.30 0.33 0.50 0.34 0.15 0.04 0.01 0.00 0.00 0.00 0.00 0.02 0.00 0.00 0.00 0.00 0.00 0.02 0.07 0.01 0.02 0.04 0.03 0.15 0.09 0.00 0.00 0.00 0.00 0.00 0.08 0.27 0.25
0.07 0.20 0.26 0.19 0.24 0.33 0.36 0.30 0.38 0.47 0.35 0.30 0.73 0.29 0.04 0.00 0.00 0.00 0.00 0.00 0.00 0.00 0.00 0.01 0.00 0.00 0.00 0.00 0.02 0.01 0.00 0.02 0.02 0.09 0.05 0.01 0.00 0.01 0.00 0.00 0.38 0.45 0.37
0.03 0.15 0.20 0.26 0.31 0.32 0.39 0.12 0.13 0.24 0.38 0.37 0.48 0.15 0.01 0.00 0.00 0.00 0.00 0.00 0.00 0.00 0.00 0.00 0.00 0.00 0.00 0.01 0.01 0.02 0.01 0.02 0.01 0.02 0.02 0.00 0.00 0.00 0.00 0.00 0.47 0.58 0.36
0.02 0.14 0.31 0.31 0.28 0.23 0.72 0.28 0.14 0.07 0.12 0.20 0.34 0.06 0.01 0.00 0.00 0.00 0.00 0.00 0.00 0.00 0.00 0.00 0.00 0.00 0.00 0.02 0.00 0.00 0.00 0.00 0.00 0.01 0.10 0.03 0.01 0.00 0.02 0.03 0.30 0.72 0.23
0.02 0.09 0.33 0.36 0.15 0.15 0.41 0.53 0.08 0.07 0.07 0.05 0.11 0.02 0.01 0.00 0.00 0.01 0.00 0.00 0.00 0.00 0.00 0.00 0.00 0.00 0.00 0.02 0.01 0.01 0.01 0.01 0.01 0.12 0.16 0.20 0.03 0.00 0.10 0.17 0.40 0.72 0.31
0.01 0.02 0.18 0.31 0.18 0.15 0.23 0.23 0.06 0.02 0.04 0.04 0.05 0.06 0.00 0.00 0.00 0.00 0.00 0.00 0.00 0.01 0.00 0.00 0.00 0.00 0.02 0.10 0.03 0.02 0.02 0.05 0.08 0.10 0.24 0.30 0.12 0.10 0.40 0.68 0.73 0.93 0.65
0.00 0.02 0.05 0.19 0.16 0.16 0.25 0.22 0.07 0.03 0.01 0.01 0.06 0.04 0.01 0.00 0.00 0.00 0.00 0.01 0.01 0.01 0.01 0.04 0.04 0.03 0.03 0.02 0.05 0.03 0.02 0.21 0.06 0.22 0.41 0.23 0.24 0.10 0.47 0.81 0.85 0.92 0.38
0.00 0.01 0.02 0.16 0.13 0.22 0.34 0.54 0.13 0.03 0.01 0.00 0.02 0.04 0.03 0.01 0.00 0.00 0.01 0.03 0.02 0.01 0.01 0.12 0.06 0.02 0.04 0.00 0.00 0.00 0.05 0.21 0.00 0.02 0.05 0.27 0.28 0.12 0.10 0.68 1.75 1.12 0.46
0.00 0.01 0.02 0.19 0.12 0.12 0.17 0.29 0.13 0.10 0.01 0.00 0.00 0.02 0.01 0.00 0.00 0.00 0.00 0.00 0.01 0.02 0.05 0.04 0.05 0.01 0.01 0.00 0.00 0.00 0.07 0.09 0.03 0.08 0.08 0.11 0.25 0.10 0.13 0.44 0.34 0.88 0.41
0.00 0.01 0.03 0.25 0.16 0.07 0.09 0.06 0.10 0.07 0.01 0.00 0.00 0.01 0.01 0.00 0.00 0.01 0.00 0.00 0.01 0.01 0.02 0.02 0.03 0.07 0.21 0.03 0.02 0.01 0.02 0.04 0.07 0.33 0.04 0.01 0.02 0.03 0.03 0.03 0.14 0.26 0.61
0.01 0.00 0.05 0.15 0.20 0.15 0.14 0.13 0.18 0.13 0.01 0.00 0.00 0.00 0.00 0.00 0.02 0.03 0.02 0.02 0.03 0.01 0.01 0.19 0.20 0.22 0.26 0.11 0.11 0.04 0.08 0.15 0.15 0.20 0.04 0.04 0.03 0.01 0.01 0.07 0.07 0.27 0.46
0.02 0.00 0.01 0.03 0.05 0.18 0.18 0.21 0.16 0.13 0.03 0.01 0.02 0.00 0.01 0.01 0.03 0.04 0.02 0.03 0.03 0.01 0.06 0.31 0.43 0.53 0.67 0.55 0.28 0.33 0.25 0.41 0.09 0.01 0.03 0.04 0.01 0.00 0.00 0.06 0.05 0.25 0.29
0.03 0.02 0.03 0.04 0.03 0.16 0.23 0.22 0.16 0.14 0.09 0.02 0.01 0.01 0.05 0.09 0.19 0.12 0.05 0.05 0.06 0.12 0.30 0.46 0.29 0.31 0.47 0.70 0.42 0.43 0.58 0.40 0.14 0.06 0.04 0.05 0.00 0.01 0.00 0.01 0.01 0.06 0.22
0.02 0.03 0.02 0.07 0.07 0.14 0.24 0.40 0.30 0.23 0.18 0.07 0.01 0.07 0.17 0.21 0.18 0.18 0.15 0.21 0.32 0.43 0.48 0.40 0.33 0.41 0.22 0.47 0.57 0.58 0.54 0.28 0.13 0.05 0.04 0.03 0.02 0.01 0.00 0.00 0.03 0.10 0.15
0.03 0.03 0.02 0.04 0.11 0.14 0.15 0.29 0.29 0.26 0.28 0.16 0.15 0.13 0.13 0.15 0.19 0.24 0.33 0.37 0.34 0.44 0.48 0.39 0.27 0.50 0.41 0.36 0.51 0.44 0.36 0.22 0.16 0.10 0.02 0.03 0.03 0.05 0.00 0.00 0.02 0.12 0.27

GFSSE_prec_precacc24_345.txt.gz
Total_Precipitation_Accumulation
0.26 0.47 1.55 0.98 0.39 0.31 0.18 0.10 0.14 0.15 0.21 0.20 0.22 0.15 0.07 0.03 0.02 0.01 0.00 0.00 0.00 0.00 0.00 0.00 0.00 0.00 0.00 0.00 0.00 0.00 0.00 0.00 0.00 0.00 0.00 0.00 0.01 0.14 0.18 0.03 0.04 0.02 0.02
0.04 0.26 1.38 0.82 0.34 0.21 0.19 0.17 0.15 0.16 0.16 0.12 0.15 0.11 0.04 0.01 0.00 0.00 0.00 0.00 0.00 0.00 0.00 0.00 0.01 0.00 0.00 0.00 0.00 0.00 0.00 0.00 0.00 0.00 0.00 0.01 0.00 0.05 0.27 0.17 0.03 0.08 0.07
0.04 0.16 1.69 0.94 0.41 0.20 0.19 0.23 0.20 0.20 0.16 0.13 0.08 0.05 0.02 0.01 0.00 0.00 0.00 0.00 0.00 0.00 0.00 0.01 0.02 0.01 0.00 0.00 0.00 0.00 0.00 0.00 0.00 0.02 0.07 0.21 0.02 0.02 0.24 0.34 0.36 0.17 0.09
0.04 0.02 1.38 1.30 0.44 0.19 0.28 0.34 0.33 0.20 0.11 0.08 0.05 0.04 0.01 0.00 0.00 0.00 0.00 0.00 0.00 0.00 0.00 0.00 0.00 0.00 0.00 0.00 0.00 0.00 0.00 0.00 0.01 0.11 0.22 0.05 0.01 0.00 0.12 0.32 0.52 0.42 0.10
0.04 0.02 0.93 1.28 0.50 0.33 0.54 0.47 0.31 0.21 0.07 0.03 0.02 0.01 0.00 0.00 0.01 0.01 0.01 0.00 0.00 0.00 0.00 0.00 0.00 0.00 0.00 0.00 0.00 0.00 0.00 0.03 0.08 0.13 0.12 0.01 0.01 0.02 0.16 0.24 0.42 0.51 0.27
0.04 0.13 0.71 1.60 0.90 0.36 0.59 0.65 0.26 0.11 0.06 0.05 0.02 0.01 0.01 0.01 0.01 0.01 0.01 0.00 0.00 0.00 0.00 0.00 0.00 0.00 0.00 0.00 0.00 0.00 0.00 0.00 0.02 0.06 0.05 0.02 0.02 0.02 0.11 0.13 0.19 0.32 0.39
0.04 0.11 0.64 1.28 1.80 1.64 1.62 0.83 0.32 0.12 0.06 0.10 0.06 0.03 0.02 0.02 0.02 0.02 0.02 0.00 0.00 0.00 0.00 0.00 0.00 0.00 0.00 0.00 0.00 0.00 0.00 0.01 0.03 0.03 0.03 0.01 0.01 0.01 0.05 0.03 0.08 0.19 0.50
0.08 0.05 0.66 1.52 1.66 2.15 2.25 0.94 0.29 0.13 0.09 0.12 0.09 0.04 0.01 0.05 0.06 0.09 0.04 0.01 0.00 0.00 0.00 0.00 0.00 0.00 0.00 0.03 0.04 0.02 0.01 0.03 0.02 0.02 0.06 0.02 0.01 0.00 0.00 0.00 0.01 0.12 0.18
0.15 0.02 0.17 0.99 2.38 4.08 2.38 1.21 0.41 0.22 0.10 0.13 0.07 0.03 0.12 0.12 0.06 0.04 0.01 0.00 0.00 0.00 0.00 0.00 0.00 0.01 0.05 0.06 0.03 0.02 0.04 0.09 0.17 0.14 0.43 0.04 0.00 0.00 0.00 0.00 0.00 0.03 0.13
0.07 0.05 0.05 0.55 2.45 3.34 1.82 1.12 0.65 0.24 0.14 0.08 0.10 0.28 0.28 0.16 0.04 0.01 0.00 0.00 0.00 0.00 0.00 0.00 0.02 0.05 0.06 0.04 0.02 0.02 0.02 0.01 0.06 0.07 0.12 0.03 0.00 0.00 0.00 0.00 0.00 0.02 0.12
0.16 0.14 0.12 0.30 0.82 1.01 0.94 0.66 0.61 0.46 0.18 0.26 0.33 0.48 0.39 0.14 0.01 0.01 0.00 0.00 0.00 0.00 0.01 0.02 0.03 0.05 0.04 0.00 0.00 0.00 0.02 0.05 0.04 0.05 0.07 0.03 0.03 0.01 0.00 0.00 0.03 0.12 0.17
0.13 0.20 0.25 0.25 0.26 0.44 0.35 0.47 0.50 0.44 0.30 0.34 0.50 0.35 0.17 0.06 0.01 0.00 0.00 0.00 0.00 0.02 0.00 0.00 0.00 0.00 0.00 0.00 0.03 0.01 0.02 0.02 0.03 0.03 0.01 0.00 0.11 0.03 0.04 0.09 0.22 0.42 0.36
0.07 0.21 0.26 0.18 0.20 0.26 0.34 0.30 0.37 0.47 0.35 0.31 0.73 0.31 0.10 0.01 0.00 0.00 0.00 0.00 0.00 0.00 0.00 0.01 0.00 0.00 0.00 0.00 0.01 0.03 0.02 0.03 0.05 0.18 0.07 0.02 0.02 0.07 0.13 0.15 0.51 0.51 0.38
0.03 0.15 0.20 0.25 0.27 0.28 0.39 0.12 0.14 0.24 0.39 0.37 0.50 0.19 0.04 0.01 0.00 0.00 0.00 0.00 0.00 0.00 0.00 0.00 0.00 0.00 0.01 0.01 0.01 0.05 0.03 0.02 0.02 0.04 0.03 0.01 0.02 0.33 0.16 0.12 0.57 0.62 0.36
0.02 0.14 0.31 0.30 0.26 0.22 0.72 0.28 0.14 0.07 0.12 0.20 0.34 0.07 0.02 0.00 0.00 0.00 0.00 0.00 0.00 0.00 0.00 0.00 0.00 0.00 0.00 0.02 0.00 0.00 0.01 0.01 0.01 0.05 0.09 0.08 0.04 0.06 0.10 0.09 0.36 0.78 0.25
0.02 0.09 0.33 0.35 0.15 0.14 0.41 0.53 0.08 0.07 0.07 0.05 0.11 0.02 0.01 0.00 0.00 0.00 0.00 0.00 0.00 0.00 0.00 0.00 0.00 0.00 0.00 0.02 0.01 0.01 0.03 0.06 0.11 0.18 0.19 0.21 0.03 0.04 0.15 0.19 0.46 0.80 0.41
0.01 0.02 0.18 0.31 0.16 0.12 0.22 0.22 0.06 0.02 0.04 0.04 0.05 0.06 0.00 0.00 0.00 0.00 0.00 0.00 0.00 0.01 0.00 0.00 0.00 0.00 0.02 0.08 0.02 0.06 0.16 0.28 0.28 0.18 0.46 0.26 0.13 0.11 0.44 0.76 0.74 0.94 0.68
0.00 0.02 0.05 0.19 0.16 0.16 0.23 0.18 0.07 0.03 0.01 0.01 0.06 0.04 0.01 0.00 0.00 0.00 0.00 0.00 0.00 0.00 0.00 0.01 0.01 0.03 0.03 0.01 0.01 0.12 0.19 0.38 0.37 0.31 0.57 0.13 0.16 0.10 0.64 0.87 0.64 0.77 0.32
0.00 0.01 0.02 0.16 0.13 0.22 0.34 0.53 0.12 0.03 0.01 0.00 0.02 0.04 0.03 0.01 0.00 0.00 0.00 0.00 0.00 0.00 0.00 0.07 0.04 0.01 0.05 0.02 0.03 0.23 0.27 1.07 0.24 0.06 0.02 0.11 0.07 0.05 0.14 0.33 1.07 0.70 0.35
0.00 0.01 0.03 0.20 0.13 0.13 0.21 0.32 0.15 0.10 0.01 0.00 0.00 0.02 0.01 0.00 0.00 0.00 0.00 0.00 0.00 0.01 0.04 0.03 0.05 0.01 0.01 0.00 0.00 0.08 0.22 0.50 0.10 0.10 0.05 0.06 0.04 0.07 0.06 0.24 0.32 0.99 0.30
0.00 0.00 0.03 0.21 0.16 0.08 0.12 0.08 0.11 0.07 0.01 0.00 0.00 0.01 0.01 0.00 0.00 0.00 0.00 0.00 0.00 0.01 0.01 0.01 0.02 0.07 0.20 0.02 0.02 0.02 0.12 0.16 0.16 0.35 0.07 0.03 0.03 0.04 0.05 0.07 0.26 0.41 0.62
0.00 0.00 0.02 0.13 0.20 0.16 0.14 0.13 0.15 0.14 0.01 0.00 0.00 0.00 0.00 0.00 0.00 0.00 0.00 0.00 0.00 0.00 0.00 0.18 0.19 0.24 0.30 0.12 0.09 0.05 0.16 0.16 0.20 0.26 0.08 0.07 0.06 0.01 0.01 0.09 0.10 0.35 0.53
0.01 0.00 0.01 0.02 0.05 0.18 0.19 0.25 0.19 0.12 0.03 0.00 0.02 0.00 0.00 0.00 0.01 0.01 0.00 0.00 0.00 0.00 0.06 0.31 0.44 0.53 0.65 0.55 0.24 0.24 0.24 0.42 0.13 0.07 0.08 0.16 0.09 0.00 0.00 0.05 0.05 0.25 0.25
0.03 0.02 0.03 0.04 0.03 0.16 0.24 0.27 0.18 0.14 0.08 0.02 0.01 0.01 0.05 0.08 0.14 0.11 0.03 0.02 0.04 0.10 0.28 0.45 0.31 0.33 0.47 0.65 0.44 0.38 0.47 0.30 0.15 0.06 0.05 0.12 0.02 0.01 0.00 0.01 0.01 0.05 0.19
0.02 0.03 0.02 0.07 0.07 0.14 0.25 0.41 0.36 0.26 0.20 0.08 0.01 0.05 0.15 0.19 0.17 0.16 0.12 0.19 0.31 0.41 0.45 0.37 0.39 0.27 0.12 0.46 0.57 0.59 0.55 0.28 0.13 0.07 0.06 0.04 0.03 0.01 0.00 0.00 0.03 0.09 0.14
0.03 0.03 0.02 0.04 0.11 0.14 0.15 0.30 0.33 0.31 0.30 0.16 0.15 0.11 0.10 0.13 0.16 0.19 0.23 0.26 0.26 0.34 0.42 0.36 0.29 0.44 0.28 0.31 0.41 0.37 0.35 0.22 0.16 0.09 0.03 0.04 0.04 0.05 0.00 0.00 0.02 0.12 0.26